When you browse on this site, cookies collect data to enhance your experience and personalize the content and advertising you see.
Visit our Privacy Policy to learn more. By continuing to use the site, you agree to this use of cookies and data.
  • In Deutschland
  • Länderverzeichnis
  • Für 7 Tage
  • Wassertemperatur
  • Satellitenkarten
  • Wetterkarte
  • Widgets
  • user-avatar
    Anmelden

    Stündliche Wetter Suva

    Heute, 16 Dezember, Sonntag

    Zeit Temperatur Niederschläge Wind Luftdruck Luftfeuchtigkeit
    00:00 +26°C° 0 mm 3 m/S 752 mmHg 97%
    01:00 +26°C° 0.9 mm 3 m/S 752 mmHg 97%
    02:00 +26°C° 0.9 mm 3 m/S 751 mmHg 96%
    03:00 +26°C° 0.9 mm 3 m/S 751 mmHg 96%
    04:00 +26°C° 0.5 mm 2 m/S 751 mmHg 96%
    05:00 +26°C° 0.5 mm 2 m/S 751 mmHg 96%
    06:00 +26°C° 0 mm 2 m/S 752 mmHg 95%
    07:00 +28°C° 0.1 mm 2 m/S 752 mmHg 87%
    08:00 +30°C° 0.1 mm 2 m/S 752 mmHg 79%
    09:00 +32°C° 0.1 mm 2 m/S 752 mmHg 71%
    10:00 +31°C° 0.4 mm 2 m/S 752 mmHg 74%
    11:00 +31°C° 0.4 mm 2 m/S 752 mmHg 77%
    12:00 +31°C° 0 mm 2 m/S 752 mmHg 80%
    13:00 +31°C° 1.1 mm 2 m/S 751 mmHg 80%
    14:00 +31°C° 1.1 mm 2 m/S 751 mmHg 80%
    15:00 +31°C° 1.1 mm 2 m/S 751 mmHg 80%
    16:00 +30°C° 1.1 mm 2 m/S 751 mmHg 84%
    17:00 +29°C° 1.1 mm 2 m/S 751 mmHg 88%
    18:00 +27°C° 0 mm 2 m/S 751 mmHg 93%
    19:00 +27°C° 0.1 mm 2 m/S 751 mmHg 94%
    20:00 +26°C° 0.1 mm 2 m/S 752 mmHg 95%
    21:00 +26°C° 0.1 mm 2 m/S 752 mmHg 95%
    22:00 +25°C° 0 mm 2 m/S 752 mmHg 96%
    23:00 +25°C° 0 mm 1 m/S 752 mmHg 96%

    Morgen, 17 Dezember, Montag

    Zeit Temperatur Niederschläge Wind Luftdruck Luftfeuchtigkeit
    00:00 +25°C° 0 mm 1 m/S 752 mmHg 97%
    01:00 +25°C° 0 mm 1 m/S 752 mmHg 97%
    02:00 +25°C° 0 mm 1 m/S 752 mmHg 97%
    03:00 +25°C° 0 mm 1 m/S 752 mmHg 98%
    04:00 +25°C° 0 mm 1 m/S 752 mmHg 98%
    05:00 +25°C° 0 mm 1 m/S 752 mmHg 98%
    06:00 +25°C° 0 mm 1 m/S 752 mmHg 98%
    07:00 +27°C° 0 mm 1 m/S 753 mmHg 89%
    08:00 +29°C° 0 mm 1 m/S 753 mmHg 80%
    09:00 +31°C° 0 mm 1 m/S 753 mmHg 71%
    10:00 +32°C° 0.1 mm 1 m/S 753 mmHg 68%
    11:00 +34°C° 0.1 mm 2 m/S 753 mmHg 65%
    12:00 +35°C° 0.1 mm 2 m/S 753 mmHg 61%
    13:00 +34°C° 0.2 mm 2 m/S 752 mmHg 68%
    14:00 +31°C° 0.2 mm 2 m/S 752 mmHg 75%
    15:00 +30°C° 0.2 mm 2 m/S 752 mmHg 82%
    16:00 +29°C° 0.3 mm 2 m/S 752 mmHg 86%
    17:00 +28°C° 0.3 mm 2 m/S 752 mmHg 90%
    18:00 +28°C° 0.3 mm 2 m/S 752 mmHg 93%
    19:00 +27°C° 0.1 mm 2 m/S 753 mmHg 94%
    20:00 +27°C° 0.1 mm 2 m/S 753 mmHg 95%
    21:00 +26°C° 0.1 mm 1 m/S 754 mmHg 96%
    22:00 +26°C° 0 mm 1 m/S 754 mmHg 96%
    23:00 +26°C° 0 mm 1 m/S 754 mmHg 96%

    übermorgen, 18 Dezember, Dienstag

    Zeit Temperatur Niederschläge Wind Luftdruck Luftfeuchtigkeit
    00:00 +25°C° 0 mm 1 m/S 754 mmHg 97%
    01:00 +25°C° 0 mm 1 m/S 754 mmHg 97%
    02:00 +25°C° 0 mm 1 m/S 754 mmHg 98%
    03:00 +25°C° 0 mm 2 m/S 753 mmHg 98%
    04:00 +25°C° 0 mm 1 m/S 754 mmHg 98%
    05:00 +25°C° 0 mm 1 m/S 754 mmHg 98%
    06:00 +25°C° 0 mm 1 m/S 754 mmHg 98%
    07:00 +27°C° 0 mm 1 m/S 754 mmHg 88%
    08:00 +30°C° 0 mm 1 m/S 755 mmHg 78%
    09:00 +32°C° 0 mm 1 m/S 755 mmHg 68%
    10:00 +33°C° 0 mm 1 m/S 755 mmHg 62%
    11:00 +34°C° 0 mm 1 m/S 755 mmHg 55%
    12:00 +36°C° 0 mm 1 m/S 755 mmHg 48%
    13:00 +36°C° 0.2 mm 2 m/S 754 mmHg 57%
    14:00 +34°C° 0.2 mm 2 m/S 754 mmHg 65%
    15:00 +32°C° 0.2 mm 2 m/S 754 mmHg 74%
    16:00 +31°C° 0.8 mm 2 m/S 754 mmHg 79%
    17:00 +30°C° 0.8 mm 2 m/S 754 mmHg 84%
    18:00 +29°C° 0.8 mm 2 m/S 754 mmHg 89%
    19:00 +28°C° 0.1 mm 2 m/S 754 mmHg 90%
    20:00 +27°C° 0.1 mm 1 m/S 755 mmHg 92%
    21:00 +26°C° 0.1 mm 1 m/S 755 mmHg 94%
    22:00 +26°C° 0 mm 1 m/S 755 mmHg 94%
    23:00 +26°C° 0 mm 1 m/S 756 mmHg 95%

    19 Dezember, Mittwoch

    Zeit Temperatur Niederschläge Wind Luftdruck Luftfeuchtigkeit
    00:00 +26°C° 0 mm 1 m/S 756 mmHg 95%
    01:00 +26°C° 0.2 mm 1 m/S 755 mmHg 95%
    02:00 +26°C° 0.2 mm 1 m/S 755 mmHg 96%
    03:00 +26°C° 0.2 mm 1 m/S 754 mmHg 96%
    04:00 +26°C° 1.6 mm 1 m/S 755 mmHg 97%
    05:00 +26°C° 1.6 mm 1 m/S 755 mmHg 97%
    06:00 +26°C° 1.6 mm 1 m/S 755 mmHg 98%
    07:00 +26°C° 2.5 mm 1 m/S 756 mmHg 98%
    08:00 +26°C° 2.5 mm 1 m/S 756 mmHg 98%
    09:00 +26°C° 2.5 mm 2 m/S 757 mmHg 98%
    10:00 +26°C° 2.4 mm 2 m/S 756 mmHg 98%
    11:00 +26°C° 2.4 mm 1 m/S 756 mmHg 97%
    12:00 +26°C° 2.4 mm 1 m/S 756 mmHg 97%
    13:00 +26°C° 0.5 mm 1 m/S 756 mmHg 96%
    14:00 +27°C° 0.5 mm 1 m/S 755 mmHg 95%
    15:00 +27°C° 0.5 mm 1 m/S 755 mmHg 95%
    16:00 +27°C° 0 mm 1 m/S 755 mmHg 94%
    17:00 +27°C° 0 mm 1 m/S 755 mmHg 93%
    18:00 +27°C° 0 mm 1 m/S 755 mmHg 92%
    19:00 +26°C° 0 mm 1 m/S 755 mmHg 93%
    20:00 +26°C° 0 mm 1 m/S 756 mmHg 94%
    21:00 +25°C° 0 mm 1 m/S 756 mmHg 95%
    22:00 +25°C° 0 mm 1 m/S 756 mmHg 95%
    23:00 +25°C° 0 mm 1 m/S 756 mmHg 95%

    20 Dezember, Donnerstag

    Zeit Temperatur Niederschläge Wind Luftdruck Luftfeuchtigkeit
    00:00 +25°C° 0 mm 1 m/S 756 mmHg 95%
    01:00 +25°C° 0 mm 1 m/S 755 mmHg 95%
    02:00 +25°C° 0 mm 1 m/S 755 mmHg 95%
    03:00 +25°C° 0 mm 1 m/S 754 mmHg 95%
    04:00 +25°C° 0 mm 1 m/S 754 mmHg 94%
    05:00 +25°C° 0 mm 1 m/S 755 mmHg 94%
    06:00 +25°C° 0 mm 2 m/S 755 mmHg 94%
    07:00 +27°C° 0 mm 1 m/S 755 mmHg 88%
    08:00 +28°C° 0 mm 1 m/S 755 mmHg 83%
    09:00 +30°C° 0 mm 1 m/S 756 mmHg 77%
    10:00 +31°C° 0.3 mm 1 m/S 755 mmHg 75%
    11:00 +32°C° 0.3 mm 1 m/S 755 mmHg 72%
    12:00 +33°C° 0.3 mm 1 m/S 755 mmHg 70%
    13:00 +31°C° 1.5 mm 1 m/S 755 mmHg 77%
    14:00 +30°C° 1.5 mm 1 m/S 754 mmHg 85%
    15:00 +29°C° 1.5 mm 1 m/S 754 mmHg 93%
    16:00 +28°C° 1.4 mm 1 m/S 754 mmHg 94%
    17:00 +27°C° 1.4 mm 1 m/S 754 mmHg 95%
    18:00 +26°C° 1.4 mm 1 m/S 754 mmHg 96%
    19:00 +26°C° 0.5 mm 1 m/S 755 mmHg 96%
    20:00 +26°C° 0.5 mm 1 m/S 755 mmHg 96%
    21:00 +26°C° 0.5 mm 1 m/S 756 mmHg 96%
    22:00 +25°C° 0.2 mm 1 m/S 756 mmHg 96%
    23:00 +25°C° 0.2 mm 1 m/S 755 mmHg 96%

    21 Dezember, Freitag

    Zeit Temperatur Niederschläge Wind Luftdruck Luftfeuchtigkeit
    00:00 +25°C° 0.2 mm 1 m/S 755 mmHg 96%
    01:00 +25°C° 0 mm 1 m/S 755 mmHg 96%
    02:00 +25°C° 0 mm 1 m/S 754 mmHg 96%
    03:00 +25°C° 0 mm 1 m/S 754 mmHg 96%
    04:00 +25°C° 0 mm 1 m/S 754 mmHg 96%
    05:00 +25°C° 0 mm 1 m/S 754 mmHg 95%
    06:00 +25°C° 0 mm 1 m/S 754 mmHg 95%
    07:00 +27°C° 0 mm 1 m/S 755 mmHg 86%
    08:00 +29°C° 0 mm 1 m/S 755 mmHg 77%
    09:00 +31°C° 0 mm 1 m/S 755 mmHg 68%
    10:00 +32°C° 0.5 mm 1 m/S 755 mmHg 71%
    11:00 +32°C° 0.5 mm 1 m/S 755 mmHg 74%
    12:00 +32°C° 0.5 mm 1 m/S 754 mmHg 76%
    13:00 +31°C° 0.8 mm 2 m/S 754 mmHg 80%
    14:00 +30°C° 0.8 mm 2 m/S 754 mmHg 83%
    15:00 +30°C° 0.8 mm 2 m/S 753 mmHg 87%
    16:00 +29°C° 0.5 mm 2 m/S 754 mmHg 89%
    17:00 +28°C° 0.5 mm 1 m/S 754 mmHg 91%
    18:00 +27°C° 0.5 mm 1 m/S 754 mmHg 93%
    19:00 +27°C° 0.3 mm 1 m/S 755 mmHg 94%
    20:00 +26°C° 0.3 mm 1 m/S 755 mmHg 94%
    21:00 +26°C° 0.3 mm 1 m/S 756 mmHg 95%
    22:00 +26°C° 0.1 mm 2 m/S 756 mmHg 95%
    23:00 +26°C° 0.1 mm 2 m/S 756 mmHg 95%
    Mehr zeigen